Time,TemperatureF,DewpointF,PressureIn,WindDirection,WindDirectionDegrees,WindSpeedMPH,WindSpeedGustMPH,Humidity,HourlyPrecipIn,Conditions,Clouds,dailyrainin,SoftwareType,DateUTC
2013-05-27 00:14:00,51.2,45.0,29.45,WSW,248,12.0,28.0,80,0.00,,,0.00,weatherlink.com 1.10,2013-05-26 23:14:00,
2013-05-27 00:29:00,51.2,45.0,29.45,NW,314,12.0,25.0,80,0.00,,,0.00,weatherlink.com 1.10,2013-05-26 23:29:00,
2013-05-27 00:45:00,51.3,46.0,29.44,WSW,258,17.0,25.0,81,0.00,,,0.00,weatherlink.com 1.10,2013-05-26 23:45:00,
2013-05-27 01:00:00,51.4,46.0,29.43,SW,236,15.0,25.0,81,0.00,,,0.00,weatherlink.com 1.10,2013-05-27 00:00:00,
2013-05-27 01:15:00,51.4,46.0,29.43,SSW,212,21.0,30.0,82,0.00,,,0.00,weatherlink.com 1.10,2013-05-27 00:15:00,
2013-05-27 01:30:00,51.4,46.0,29.42,WSW,253,10.0,23.0,82,0.00,,,0.00,weatherlink.com 1.10,2013-05-27 00:30:00,
2013-05-27 01:45:00,51.6,46.0,29.41,West,264,16.0,21.0,82,0.00,,,0.00,weatherlink.com 1.10,2013-05-27 00:45:00,
2013-05-27 02:00:00,51.6,47.0,29.40,West,259,11.0,23.0,83,0.00,,,0.00,weatherlink.com 1.10,2013-05-27 01:00:00,
2013-05-27 02:15:00,51.6,47.0,29.38,WSW,256,7.0,18.0,83,0.00,,,0.00,weatherlink.com 1.10,2013-05-27 01:15:00,
2013-05-27 02:30:00,50.9,47.0,29.38,SW,235,8.0,24.0,86,0.00,,,0.00,weatherlink.com 1.10,2013-05-27 01:30:00,
2013-05-27 02:45:00,50.4,47.0,29.37,West,260,8.0,19.0,88,0.01,,,0.01,weatherlink.com 1.10,2013-05-27 01:45:00,
2013-05-27 03:00:00,49.7,47.0,29.36,WSW,246,12.0,20.0,90,0.01,,,0.01,weatherlink.com 1.10,2013-05-27 02:00:00,
2013-05-27 03:15:00,49.3,47.0,29.34,West,266,7.0,22.0,91,0.01,,,0.01,weatherlink.com 1.10,2013-05-27 02:15:00,
2013-05-27 03:30:00,49.1,47.0,29.34,NW,309,3.0,19.0,92,0.01,,,0.01,weatherlink.com 1.10,2013-05-27 02:30:00,
2013-05-27 03:45:00,49.1,47.0,29.33,WNW,294,4.0,17.0,93,0.02,,,0.02,weatherlink.com 1.10,2013-05-27 02:45:00,
2013-05-27 04:00:00,48.7,47.0,29.32,West,271,6.0,23.0,92,0.03,,,0.04,weatherlink.com 1.10,2013-05-27 03:00:00,
2013-05-27 04:15:00,48.9,47.0,29.31,West,275,9.0,11.0,94,0.03,,,0.04,weatherlink.com 1.10,2013-05-27 03:15:00,
2013-05-27 04:30:00,49.0,47.0,29.30,WSW,253,6.0,17.0,94,0.06,,,0.06,weatherlink.com 1.10,2013-05-27 03:30:00,
2013-05-27 04:45:00,49.1,48.0,29.29,SW,219,11.0,12.0,94,0.06,,,0.08,weatherlink.com 1.10,2013-05-27 03:45:00,
2013-05-27 05:00:00,49.3,47.0,29.28,WSW,243,12.0,12.0,93,0.06,,,0.09,weatherlink.com 1.10,2013-05-27 04:00:00,
2013-05-27 05:15:00,49.7,48.0,29.27,West,279,5.0,26.0,92,0.06,,,0.10,weatherlink.com 1.10,2013-05-27 04:15:00,
2013-05-27 05:30:00,49.7,48.0,29.26,WSW,253,11.0,19.0,92,0.06,,,0.12,weatherlink.com 1.10,2013-05-27 04:30:00,
2013-05-27 05:45:00,49.7,48.0,29.25,West,276,16.0,25.0,92,0.06,,,0.14,weatherlink.com 1.10,2013-05-27 04:45:00,
2013-05-27 06:01:00,49.6,47.0,29.24,WSW,250,12.0,22.0,92,0.06,,,0.16,weatherlink.com 1.10,2013-05-27 05:01:00,
2013-05-27 06:16:00,49.7,48.0,29.23,West,260,16.0,22.0,92,0.07,,,0.17,weatherlink.com 1.10,2013-05-27 05:16:00,
2013-05-27 06:31:00,49.7,48.0,29.22,WSW,240,17.0,19.0,93,0.06,,,0.19,weatherlink.com 1.10,2013-05-27 05:31:00,
2013-05-27 06:46:00,49.7,48.0,29.22,West,274,11.0,17.0,93,0.06,,,0.20,weatherlink.com 1.10,2013-05-27 05:46:00,
2013-05-27 07:01:00,49.9,48.0,29.20,SW,229,6.0,21.0,93,0.07,,,0.23,weatherlink.com 1.10,2013-05-27 06:01:00,
2013-05-27 07:16:00,50.1,48.0,29.20,WSW,246,20.0,20.0,93,0.06,,,0.24,weatherlink.com 1.10,2013-05-27 06:16:00,
2013-05-27 07:31:00,50.3,48.0,29.20,WNW,288,5.0,18.0,93,0.06,,,0.24,weatherlink.com 1.10,2013-05-27 06:31:00,
2013-05-27 07:46:00,50.3,48.0,29.20,WSW,245,5.0,17.0,93,0.05,,,0.26,weatherlink.com 1.10,2013-05-27 06:46:00,
2013-05-27 08:01:00,50.2,49.0,29.19,SW,224,8.0,17.0,94,0.08,,,0.31,weatherlink.com 1.10,2013-05-27 07:01:00,
2013-05-27 08:16:00,50.1,48.0,29.19,SW,235,12.0,17.0,93,0.12,,,0.35,weatherlink.com 1.10,2013-05-27 07:16:00,
2013-05-27 08:31:00,50.0,48.0,29.18,WNW,289,3.0,20.0,93,0.17,,,0.42,weatherlink.com 1.10,2013-05-27 07:31:00,
2013-05-27 08:46:00,49.9,48.0,29.18,South,186,8.0,18.0,93,0.18,,,0.44,weatherlink.com 1.10,2013-05-27 07:46:00,
2013-05-27 09:01:00,49.9,48.0,29.17,WNW,294,8.0,20.0,93,0.16,,,0.46,weatherlink.com 1.10,2013-05-27 08:01:00,
2013-05-27 09:16:00,48.1,46.0,29.18,NNW,338,3.0,18.0,93,0.17,,,0.53,weatherlink.com 1.10,2013-05-27 08:16:00,
2013-05-27 09:31:00,47.5,46.0,29.18,WNW,296,4.0,15.0,94,0.13,,,0.55,weatherlink.com 1.10,2013-05-27 08:31:00,
2013-05-27 09:46:00,47.3,46.0,29.18,NNW,341,5.0,9.0,95,0.11,,,0.56,weatherlink.com 1.10,2013-05-27 08:46:00,
2013-05-27 10:01:00,47.4,46.0,29.18,NNW,339,7.0,9.0,94,0.09,,,0.56,weatherlink.com 1.10,2013-05-27 09:01:00,
2013-05-27 10:16:00,47.5,46.0,29.18,WNW,300,7.0,9.0,95,0.02,,,0.56,weatherlink.com 1.10,2013-05-27 09:16:00,
2013-05-27 10:31:00,47.6,46.0,29.18,North,353,5.0,10.0,95,0.01,,,0.56,weatherlink.com 1.10,2013-05-27 09:31:00,
2013-05-27 10:46:00,47.5,46.0,29.17,NW,309,1.0,6.0,95,0.00,,,0.56,weatherlink.com 1.10,2013-05-27 09:46:00,
2013-05-27 11:01:00,48.2,46.0,29.17,NW,321,8.0,12.0,93,0.01,,,0.57,weatherlink.com 1.10,2013-05-27 10:01:00,
2013-05-27 11:16:00,48.6,46.0,29.17,North,11,3.0,11.0,91,0.01,,,0.57,weatherlink.com 1.10,2013-05-27 10:16:00,
2013-05-27 11:31:00,49.5,47.0,29.16,SW,229,1.0,11.0,90,0.01,,,0.57,weatherlink.com 1.10,2013-05-27 10:31:00,
2013-05-27 11:46:00,50.3,47.0,29.16,West,280,4.0,9.0,89,0.01,,,0.57,weatherlink.com 1.10,2013-05-27 10:46:00,
2013-05-27 12:01:00,50.9,48.0,29.16,WNW,300,10.0,10.0,88,0.00,,,0.57,weatherlink.com 1.10,2013-05-27 11:01:00,
2013-05-27 12:16:00,50.8,46.0,29.15,NW,304,6.0,11.0,84,0.00,,,0.57,weatherlink.com 1.10,2013-05-27 11:16:00,
2013-05-27 12:31:00,51.1,47.0,29.15,WNW,291,1.0,9.0,85,0.00,,,0.57,weatherlink.com 1.10,2013-05-27 11:31:00,
2013-05-27 12:46:00,51.3,46.0,29.15,WNW,297,6.0,13.0,83,0.00,,,0.57,weatherlink.com 1.10,2013-05-27 11:46:00,
2013-05-27 13:01:00,51.6,46.0,29.15,WNW,283,7.0,16.0,82,0.00,,,0.57,weatherlink.com 1.10,2013-05-27 12:01:00,
2013-05-27 13:16:00,52.2,46.0,29.14,NW,309,8.0,12.0,80,0.00,,,0.57,weatherlink.com 1.10,2013-05-27 12:16:00,
2013-05-27 13:31:00,53.1,46.0,29.14,NW,325,2.0,16.0,78,0.00,,,0.57,weatherlink.com 1.10,2013-05-27 12:31:00,
2013-05-27 13:47:00,53.6,46.0,29.14,West,271,8.0,13.0,76,0.00,,,0.57,weatherlink.com 1.10,2013-05-27 12:47:00,
2013-05-27 14:02:00,53.4,46.0,29.14,NW,316,6.0,13.0,77,0.00,,,0.57,weatherlink.com 1.10,2013-05-27 13:02:00,
2013-05-27 14:17:00,52.0,47.0,29.14,NNW,344,6.0,10.0,82,0.00,,,0.57,weatherlink.com 1.10,2013-05-27 13:17:00,
2013-05-27 14:32:00,51.8,46.0,29.15,North,356,4.0,8.0,80,0.00,,,0.57,weatherlink.com 1.10,2013-05-27 13:32:00,
2013-05-27 14:47:00,53.2,46.0,29.14,North,4,6.0,9.0,76,0.00,,,0.57,weatherlink.com 1.10,2013-05-27 13:47:00,
2013-05-27 15:02:00,52.1,44.0,29.15,North,349,4.0,13.0,73,0.00,,,0.57,weatherlink.com 1.10,2013-05-27 14:02:00,
2013-05-27 15:17:00,53.4,45.0,29.14,North,358,9.0,10.0,74,0.00,,,0.57,weatherlink.com 1.10,2013-05-27 14:17:00,
2013-05-27 15:32:00,55.3,45.0,29.14,NW,312,8.0,12.0,69,0.00,,,0.57,weatherlink.com 1.10,2013-05-27 14:32:00,
2013-05-27 15:47:00,55.4,45.0,29.14,NNW,333,6.0,16.0,68,0.00,,,0.57,weatherlink.com 1.10,2013-05-27 14:47:00,
2013-05-27 16:02:00,52.3,42.0,29.14,NNW,345,20.0,23.0,68,0.00,,,0.57,weatherlink.com 1.10,2013-05-27 15:02:00,
2013-05-27 16:17:00,53.4,43.0,29.14,NNW,337,13.0,15.0,68,0.00,,,0.57,weatherlink.com 1.10,2013-05-27 15:17:00,
2013-05-27 16:32:00,53.8,43.0,29.14,WNW,288,5.0,15.0,66,0.00,,,0.57,weatherlink.com 1.10,2013-05-27 15:32:00,
2013-05-27 16:47:00,54.2,42.0,29.14,WNW,289,7.0,14.0,64,0.00,,,0.57,weatherlink.com 1.10,2013-05-27 15:47:00,
2013-05-27 17:02:00,55.4,43.0,29.13,NNW,346,12.0,15.0,63,0.00,,,0.57,weatherlink.com 1.10,2013-05-27 16:02:00,
2013-05-27 17:17:00,56.3,43.0,29.13,SSW,201,4.0,14.0,62,0.00,,,0.57,weatherlink.com 1.10,2013-05-27 16:17:00,
2013-05-27 17:32:00,55.9,44.0,29.14,NW,312,5.0,7.0,64,0.00,,,0.57,weatherlink.com 1.10,2013-05-27 16:32:00,
2013-05-27 17:47:00,53.7,44.0,29.14,North,5,8.0,17.0,71,0.01,,,0.57,weatherlink.com 1.10,2013-05-27 16:47:00,
2013-05-27 18:02:00,50.7,44.0,29.14,SSW,200,0.0,4.0,79,0.04,,,0.61,weatherlink.com 1.10,2013-05-27 17:02:00,
2013-05-27 18:17:00,51.0,45.0,29.14,NW,310,1.0,3.0,80,0.04,,,0.61,weatherlink.com 1.10,2013-05-27 17:17:00,
2013-05-27 18:32:00,52.4,46.0,29.14,SW,226,1.0,6.0,79,0.04,,,0.61,weatherlink.com 1.10,2013-05-27 17:32:00,
2013-05-27 18:47:00,54.3,46.0,29.14,WSW,256,5.0,7.0,73,0.03,,,0.61,weatherlink.com 1.10,2013-05-27 17:47:00,
2013-05-27 19:02:00,54.0,46.0,29.14,WNW,283,2.0,5.0,73,0.00,,,0.61,weatherlink.com 1.10,2013-05-27 18:02:00,
2013-05-27 19:17:00,53.8,45.0,29.14,NW,320,1.0,6.0,71,0.00,,,0.61,weatherlink.com 1.10,2013-05-27 18:17:00,
2013-05-27 19:32:00,54.4,45.0,29.14,SE,135,0.0,6.0,71,0.00,,,0.61,weatherlink.com 1.10,2013-05-27 18:32:00,
2013-05-27 19:47:00,55.4,45.0,29.14,NNW,339,2.0,9.0,68,0.00,,,0.61,weatherlink.com 1.10,2013-05-27 18:47:00,
2013-05-27 20:02:00,55.3,44.0,29.14,WNW,288,3.0,5.0,65,0.00,,,0.61,weatherlink.com 1.10,2013-05-27 19:02:00,
2013-05-27 20:17:00,54.5,43.0,29.14,WNW,302,4.0,8.0,65,0.00,,,0.61,weatherlink.com 1.10,2013-05-27 19:17:00,
2013-05-27 20:32:00,53.6,43.0,29.15,NNW,330,4.0,7.0,68,0.00,,,0.61,weatherlink.com 1.10,2013-05-27 19:32:00,
2013-05-27 20:47:00,52.9,43.0,29.15,NNW,339,2.0,4.0,70,0.00,,,0.61,weatherlink.com 1.10,2013-05-27 19:47:00,
2013-05-27 21:02:00,52.2,43.0,29.16,NNW,330,8.0,8.0,72,0.00,,,0.61,weatherlink.com 1.10,2013-05-27 20:02:00,
2013-05-27 21:17:00,51.6,44.0,29.16,NW,319,3.0,10.0,75,0.00,,,0.61,weatherlink.com 1.10,2013-05-27 20:17:00,
2013-05-27 21:32:00,51.1,44.0,29.17,NNW,348,5.0,6.0,78,0.00,,,0.61,weatherlink.com 1.10,2013-05-27 20:32:00,
2013-05-27 21:47:00,50.7,45.0,29.18,SSW,197,1.0,6.0,80,0.00,,,0.61,weatherlink.com 1.10,2013-05-27 20:47:00,
2013-05-27 22:02:00,50.2,45.0,29.18,SW,232,1.0,6.0,81,0.00,,,0.61,weatherlink.com 1.10,2013-05-27 21:02:00,
2013-05-27 22:17:00,49.6,44.0,29.18,WNW,290,0.0,5.0,81,0.00,,,0.61,weatherlink.com 1.10,2013-05-27 21:17:00,
2013-05-27 22:32:00,48.5,44.0,29.19,WSW,238,2.0,4.0,84,0.00,,,0.61,weatherlink.com 1.10,2013-05-27 21:32:00,
2013-05-27 22:47:00,47.9,44.0,29.19,South,181,2.0,4.0,85,0.00,,,0.61,weatherlink.com 1.10,2013-05-27 21:47:00,
2013-05-27 23:02:00,46.5,43.0,29.19,SW,235,2.0,4.0,88,0.00,,,0.61,weatherlink.com 1.10,2013-05-27 22:02:00,
2013-05-27 23:17:00,46.2,43.0,29.20,South,179,1.0,2.0,89,0.00,,,0.61,weatherlink.com 1.10,2013-05-27 22:17:00,
2013-05-27 23:32:00,46.2,43.0,29.20,SW,235,0.0,4.0,87,0.00,,,0.61,weatherlink.com 1.10,2013-05-27 22:32:00,
2013-05-27 23:47:00,46.5,43.0,29.20,SSE,165,5.0,6.0,86,0.00,,,0.61,weatherlink.com 1.10,2013-05-27 22:47:00,